Volver al catálogo

DMSP 5D-2 F8 DEB

ActivoSSO
NORAD 60252·DEBRIS·🇺🇸 United States

Lanzado Jun 20, 1987 desde Vandenberg Space Force Base

Loading…

Próximos Pases (próximas 24 horas)

TLE

ActualizadoSource: Space-Track

Época: Sep 14, 2026, 00:10 UTC

1 60252U 87053K   26257.00707181  .00000987  00000-0  43951-3 0  9993
2 60252  98.7249  86.5736 0018225 232.5622 127.3900 14.25073089111780

Sigue DMSP 5D-2 F8 DEB en tiempo real con AllMySat

Download on the App Store